User: anonymous   Login
Location: Unspecified
(0.0000°N, 0.0000°E)
Time: 13:32:11
(UTC+00:00)
Language:

Vanguard 1 - Orbit

View from above orbital plane
View from above orbital plane
View from above satellite
View from above satellite

Ground track
Ground track

The orbit data is extracted from the following two-line orbital elements,

1 00005U 58002B   22279.04546675  .00000254  00000-0  31147-3 0  9999
2 00005  34.2447 158.5779 1846424 175.3560 186.7054 10.85016090296557
Epoch (UTC): 06 October 2022 01:05:28
Eccentricity: 0.1846424
inclination: 34.2447°
perigee height: 649 km
apogee height: 3832 km
right ascension of ascending node: 158.5779°
argument of perigee: 175.3560°
revolutions per day: 10.85016090
mean anomaly at epoch: 186.7054°
orbit number at epoch: 29655

The dashed part of the orbit path shows where the satellite is in the earth's shadow,  

DLR